CW0630 Weather Reports


Display with metric or nautical units.
time (UTC)temp
F
wind
direction
speed
MPH
gust
MPH
rain 1hr
in
rain 24hr
in
rain mn
in
humidity
%
barometer
mb
20260506200844 69 207 5.0 5.0 0.00 0.08 0.08 83 1009.8
20260506190901 67 169 4.0 5.0 0.01 0.08 0.08 84 1009.8
20260506180907 66 174 7.0 10.0 0.00 0.07 0.07 84 1010.8
20260506170903 65 182 4.0 4.0 0.00 0.07 0.07 88 1010.5
20260506160854 63 173 4.0 5.0 0.01 0.07 0.07 89 1011.0
20260506150850 63 160 5.0 8.0 0.06 0.06 0.06 89 1011.9
20260506140906 64 176 5.0 7.0 0.00 0.00 0.00 83 1012.1
20260506130908 66 186 5.0 5.0 0.00 0.00 0.00 74 1011.7
20260506120853 65 196 6.0 9.0 0.00 0.00 0.00 73 1011.4
20260506110852 64 188 6.0 6.0 0.00 0.00 0.00 76 1011.4
20260506100901 64 189 3.0 5.0 0.00 0.00 0.00 75 1011.5
20260506090900 64 196 5.0 10.0 0.00 0.00 0.00 76 1011.4
20260506080900 64 184 6.0 6.0 0.00 0.00 0.00 75 1011.9
20260506070852 65 182 5.0 9.0 0.00 0.00 0.00 72 1012.0
20260506060849 66 144 15.0 15.0 0.00 0.00 0.00 70 1012.3
20260506050859 68 180 11.0 14.0 0.00 0.00 0.00 67 1012.6
20260506040851 70 165 9.0 9.0 0.00 0.00 0.00 62 1012.9
20260506030948 71 173 9.0 9.0 0.00 0.00 0.00 58 1012.6
20260506020959 72 186 2.0 4.0 0.00 0.00 0.00 54 1012.6
20260506011001 74 162 3.0 3.0 0.00 0.00 0.00 51 1012.2
20260506000946 76 176 9.0 9.0 0.00 0.00 0.00 47 1011.7
20260505230951 78 194 11.0 11.0 0.00 0.00 0.00 42 1011.5
20260505220957 80 196 5.0 5.0 0.00 0.00 0.00 36 1011.4
20260505210952 82 196 6.0 17.0 0.00 0.00 0.00 32 1011.4